Location: Moydans
(44.3997°N, 5.5038°E)
Time: 15:32:29
(UTC+02:00)

Nauka - Pass Details

Date: 23 September 2021
Orbit: 417 x 423 km, 51.6° (Epoch: 26 October)

Event Time Altitude Azimuth Distance (km) Brightness Sun altitude
Rises 21:41:56 0° 290° (WNW) 2,363 ? -23.2°
Reaches altitude 10° 21:44:19 10° 305° (NW) 1,500 ? -23.6°
Enters shadow 21:46:52 23° 354° (N) 954 ? -24.0°
